Regional Weather Roundup
Issued by NWS

Home | Current Version | Previous Version | Graphics & Text | Print | Product List | Glossary On
Versions: 1 2 3 4 5 6 7 8 9 10 11 12 13 14 15 16 17 18 19 20 21 22 23 24 25 26 27 28 29 30 31 32 33 34 35 36 37 38 39 40 41 42 43 44 45 46 47 48 49 50
000
ASUS45 KCYS 070410
RWRWY

WYOMING REGIONAL WEATHER ROUNDUP
NATIONAL WEATHER SERVICE CHEYENNE WY
1000 PM MDT MON JUL 06 2015

NOTE:  "FAIR" INDICATES FEW OR NO CLOUDS BELOW 12,000 FEET
WITH NO SIGNIFICANT WEATHER AND/OR OBSTRUCTIONS TO VISIBILITY.

WYZ001-070500-
YELLOWSTONE NATIONAL PARK

CITY           SKY/WX    TMP DP  RH WIND       PRES   REMARKS
LK YELLOWSTONE   N/A     52  48  86 CALM      30.33R
W YELLOWSTONE  NOT AVBL

$$
WYZ002>013-054>058-071-098>099-070500-
NORTHERN WYOMING

CITY           SKY/WX    TMP DP  RH WIND       PRES   REMARKS
JACKSON        FAIR      59  54  82 NW9       30.25R
CODY           CLOUDY    64  54  68 SE5       30.19S
GREYBULL       FAIR      69  52  54 W3        30.13R
WORLAND        CLOUDY    65  57  75 E3        30.14R
SHERIDAN       FAIR      60  53  77 E5        30.17R
BUFFALO        FAIR      57  53  86 S9        30.22S
GILLETTE       FAIR      52  49  89 CALM      30.20S
HULETT         CLOUDY    59  54  82 SE6       30.23S
NEWCASTLE      FAIR      59  52  77 SE9       30.24R

$$
WYZ014>020-022>026-101>103-070500-
CENTRAL WYOMING

CITY           SKY/WX    TMP DP  RH WIND       PRES   REMARKS
BIG PINEY      CLOUDY    56  52  86 SW5       30.30R
PINEDALE       LGT RAIN  55  54  94 CALM      30.31R
DUBOIS         LGT RAIN  54  50  87 SE7       30.32R
LANDER         CLOUDY    58  54  86 W9        30.21S
RIVERTON       MOCLDY    62  55  77 W7        30.22R
CASPER         FAIR      60  52  74 E10       30.22S
DOUGLAS        FAIR      55  53  93 SE6       30.26R FOG

$$
WYZ021-027>030-104>119-070500-
SOUTHERN WYOMING

CITY           SKY/WX    TMP DP  RH WIND       PRES   REMARKS
EVANSTON       FAIR      58  49  72 E15       30.27R
KEMMERER       CLOUDY    55  48  76 SE6       30.31R
FORT BRIDGER   MOCLDY    57  55  94 SE8       30.31S
ROCK SPRINGS   FAIR      56  53  90 E12       30.28S
DIXON          FAIR      67  50  54 NE8       30.24R
RAWLINS        FAIR      60  53  77 NE10      30.29R
SARATOGA       MOCLDY    59  54  82 W6        30.28R
LARAMIE        FAIR      53  50  89 SE14      30.32S
CHEYENNE       CLOUDY    56  53  90 E6        30.32R FOG
TORRINGTON     CLOUDY    63  58  83 S3        30.24R HAZE
PINE BLUFFS    CLOUDY    59  54  82 E3        30.31R

$$


USA.gov is the U.S. government's official web portal to all federal, state and local government web resources and services.